Dewpoint
65 68 70 70 71 71 71 66 68 69 69 66 68 69 68 67 69 67 68 68 61 63 62 60 64 62 60 60 62 67 66 66 67 65 66 68 69 72 74 74 74 74 74 75 75 76 77 77 77 76 77 77 77 77 77 78 78 78 78 78 78 78 78 79 79 79 79 79 79 79 79 79 79 78 78 78 78 77 77 77 77 77 77 77 77
68 71 69 70 70 68 68 69 67 68 68 68 67 67 67 67 68 68 66 65 64 66 63 60 56 59 62 61 59 60 65 65 65 62 63 66 68 69 74 74 75 75 75 75 76 77 77 77 77 77 77 77 77 78 78 78 78 78 78 78 78 78 79 79 79 79 79 79 79 79 79 79 79 79 79 78 78 78 78 78 78 78 77 77 77
70 72 71 69 70 70 68 69 67 67 68 67 69 69 67 67 68 67 69 68 65 64 59 64 63 57 59 57 60 62 61 64 60 59 59 64 66 69 69 75 74 75 76 76 77 77 77 77 78 78 78 78 78 78 78 78 78 79 79 79 79 79 79 79 79 79 79 79 79 79 79 79 79 79 79 79 79 79 78 78 78 78 77 77 76
71 70 70 69 70 71 68 69 68 68 70 69 69 70 70 69 68 69 68 68 66 65 67 60 61 57 63 57 58 60 61 62 57 56 57 64 69 64 71 71 75 76 76 77 77 77 77 77 78 78 78 78 78 78 78 78 78 79 79 79 79 79 79 79 79 79 79 79 79 80 80 80 79 79 79 79 79 79 79 79 79 78 78 78 77
74 72 71 70 69 69 69 70 71 71 70 69 70 72 70 68 69 68 69 67 64 65 60 60 62 62 59 57 55 57 59 62 63 56 54 58 62 60 64 68 72 76 78 77 77 77 76 77 77 77 78 78 78 78 79 79 80 80 80 79 79 79 79 79 79 79 79 79 79 80 80 80 80 80 80 80 80 79 79 79 79 79 79 78 78
74 75 77 72 71 70 69 69 70 70 70 71 69 68 68 69 67 66 67 66 64 65 59 59 56 58 60 59 60 63 61 56 50 58 58 54 57 67 64 66 70 70 70 78 78 77 78 77 78 78 79 78 78 79 79 79 80 80 80 79 79 80 79 79 79 80 80 79 79 79 79 80 80 80 80 80 79 79 79 79 79 78 78 78 78
75 76 70 70 68 69 69 69 71 72 70 69 71 70 70 69 69 68 66 62 63 66 62 61 54 59 64 64 60 60 60 59 57 56 57 62 63 55 65 62 60 69 65 71 78 77 78 79 78 78 79 78 79 78 80 80 80 80 80 80 80 80 80 79 80 80 79 79 79 79 79 79 79 80 80 80 80 79 79 79 79 78 78 78 77
77 75 71 69 67 69 70 71 71 71 69 70 72 70 70 69 70 68 65 61 64 63 64 62 58 56 57 59 59 61 57 57 60 54 54 62 63 62 63 65 64 68 65 63 65 72 78 79 79 79 79 79 79 79 80 80 80 79 79 80 80 80 80 80 80 80 79 80 80 80 80 81 80 80 80 80 79 79 79 79 79 78 78 77 77
76 75 76 70 69 69 67 69 71 71 71 69 68 69 70 65 69 70 71 70 61 57 61 64 59 57 56 55 58 63 60 63 60 59 52 59 62 56 58 62 67 64 70 64 68 68 76 78 79 79 80 81 79 80 80 79 79 79 79 79 79 79 79 79 80 79 79 80 80 79 80 80 80 79 80 80 79 79 79 79 78 78 77 77 77
76 75 77 72 71 71 71 72 71 71 71 69 73 70 71 69 67 68 69 70 64 62 60 59 54 53 56 54 59 52 55 59 62 63 59 57 57 57 61 58 61 59 58 61 59 64 66 77 77 78 77 78 79 79 79 79 79 79 80 80 80 80 79 79 79 79 79 79 79 80 80 79 79 79 79 80 80 79 79 79 78 77 77 76 77
74 74 77 71 71 72 73 72 71 71 73 70 70 71 72 68 69 70 70 67 65 64 62 63 56 55 53 53 56 61 63 56 63 55 57 55 55 60 55 60 58 60 64 63 59 62 67 69 66 69 68 76 79 81 80 79 78 79 79 79 80 80 79 79 79 79 79 79 80 80 79 79 78 78 79 79 79 79 79 78 78 77 76 76 76
76 75 76 75 71 72 74 73 71 71 73 71 72 71 70 69 67 67 70 68 66 67 63 64 59 59 59 57 58 59 60 59 61 60 62 59 58 59 57 57 63 62 60 60 62 56 65 67 70 67 69 70 78 79 80 80 80 81 81 81 81 79 79 80 79 79 79 80 79 79 79 78 78 79 79 79 79 79 79 78 77 76 76 76 75
76 77 74 73 74 74 75 74 73 73 73 72 71 71 72 73 69 71 66 66 65 63 57 61 61 57 62 60 60 60 56 58 59 62 58 59 55 56 57 62 66 65 67 62 62 60 64 72 70 71 71 72 73 77 76 77 79 78 79 80 78 79 79 79 79 80 80 80 80 79 78 78 78 79 79 79 79 78 78 78 77 76 75 76 75
77 77 76 75 74 74 75 75 74 72 72 72 72 73 72 71 68 70 69 67 67 62 58 66 64 61 62 58 59 59 60 57 56 56 56 57 58 62 62 60 72 66 63 62 67 69 64 68 71 67 70 71 71 72 76 74 74 77 78 78 78 78 78 78 79 79 80 80 79 79 78 78 79 79 79 79 79 78 78 77 76 75 76 75 74
76 75 75 74 74 74 73 75 74 72 73 73 70 71 70 68 71 65 66 68 68 65 65 64 68 58 62 67 60 61 59 59 58 56 52 56 57 57 57 53 66 67 61 62 67 70 63 64 66 69 71 72 71 71 74 75 74 77 78 78 78 77 78 78 79 79 79 79 79 79 78 78 79 79 79 79 79 78 77 77 76 75 76 75 72
73 72 73 75 75 75 73 73 74 73 73 73 71 70 69 72 67 67 69 67 67 68 66 66 62 66 69 63 60 63 63 67 64 64 59 59 62 71 63 55 53 59 64 61 61 67 69 66 66 69 72 72 75 73 72 71 73 78 79 79 77 77 78 78 78 78 79 78 79 79 78 78 79 79 79 79 79 78 76 77 76 75 76 74 71
72 74 75 75 76 76 76 74 74 73 71 71 71 73 69 73 68 74 72 65 61 66 68 65 63 64 64 67 63 63 63 66 58 65 60 61 68 59 62 62 62 66 61 60 61 65 61 63 68 66 71 72 73 71 72 72 74 75 76 78 77 78 78 78 78 78 78 78 78 78 78 79 79 79 78 78 78 77 76 77 76 76 75 72 70
74 74 74 73 75 75 76 75 74 71 72 72 72 68 66 77 71 70 70 67 67 63 64 67 61 66 65 62 65 62 64 60 59 66 69 65 60 59 61 60 62 58 69 64 63 70 73 67 69 67 70 71 71 72 71 71 75 74 75 78 78 77 77 77 77 77 78 77 78 78 79 79 79 79 78 78 77 76 76 77 76 76 73 71 70
72 74 74 76 77 76 76 75 73 73 72 71 70 69 67 69 71 72 70 70 74 68 67 66 65 67 61 62 63 62 61 61 62 65 67 69 65 58 56 58 59 59 69 60 62 73 72 69 69 65 70 72 71 72 72 71 72 77 78 77 77 77 77 77 76 77 77 77 77 78 78 78 78 78 78 78 77 75 76 76 76 75 73 71 70
73 76 75 74 77 76 76 76 74 73 71 72 70 69 72 75 71 72 71 72 72 72 67 67 63 70 64 62 64 64 63 60 63 60 61 62 61 59 58 58 64 57 59 59 59 62 62 67 68 65 71 72 72 71 72 72 73 74 75 76 76 77 77 76 76 77 77 77 77 77 78 78 78 78 77 77 77 76 76 76 76 74 72 70 71
74 73 74 76 74 77 77 77 75 74 70 70 69 70 71 73 73 72 75 75 74 70 71 71 65 64 67 69 66 63 61 62 63 64 68 61 60 60 62 63 62 59 61 61 61 61 63 64 68 69 76 74 74 71 71 73 72 75 73 77 76 76 77 76 76 77 76 76 77 77 77 77 78 77 77 77 77 76 75 76 76 74 72 70 70
71 74 75 75 74 76 76 74 72 74 71 75 72 69 71 72 71 72 73 72 72 71 71 70 68 67 64 68 68 66 66 64 60 60 60 63 60 59 59 57 59 60 62 65 63 62 64 65 67 73 72 76 73 73 72 73 75 68 74 75 76 76 77 76 76 76 76 76 76 77 77 77 77 77 77 76 76 76 75 76 76 74 72 71 71
69 70 73 71 73 75 73 74 72 74 71 73 71 69 73 73 70 73 74 74 73 72 69 70 71 72 67 67 68 62 63 63 64 65 63 61 61 59 56 56 57 57 63 63 65 64 65 64 73 74 73 71 72 71 72 73 74 76 74 75 76 76 76 76 76 75 75 75 76 76 76 76 76 77 77 76 76 76 76 77 76 74 72 71 71
72 71 70 69 73 73 74 74 73 73 73 72 72 71 70 69 70 72 73 74 74 73 71 67 64 68 68 64 63 62 64 62 61 64 63 63 63 61 58 62 61 60 59 67 63 65 65 65 68 69 67 67 72 72 71 74 76 77 78 75 75 76 75 76 75 75 75 75 75 75 75 75 76 76 76 77 76 76 76 76 77 74 73 72 71
70 70 69 71 74 75 75 74 76 75 76 76 76 73 73 71 72 71 72 73 73 74 72 71 68 68 64 62 61 61 62 64 64 65 62 63 65 63 62 62 62 60 63 61 63 64 65 66 68 68 66 69 67 71 68 71 72 74 76 75 75 75 75 76 75 75 75 75 75 75 75 75 75 76 76 76 76 76 75 76 77 75 73 72 72
69 70 69 69 71 73 75 75 77 77 76 77 76 76 76 74 73 74 71 74 74 72 72 71 71 69 68 68 66 65 66 63 64 63 64 63 62 62 66 65 63 61 62 67 68 65 65 68 70 70 68 69 69 70 69 65 71 75 74 74 75 74 75 75 75 75 75 75 75 75 75 75 75 75 75 75 76 76 75 76 76 76 74 73 72
70 71 71 72 72 74 75 76 76 75 76 75 71 74 78 76 74 74 73 72 72 73 72 70 67 68 69 68 68 68 65 65 63 63 64 63 64 63 66 66 64 64 67 66 66 65 62 64 64 65 68 72 72 70 70 66 71 73 76 72 75 73 73 74 74 74 74 74 74 74 74 75 75 75 75 75 75 75 75 76 76 76 74 73 72
72 73 70 71 73 74 75 74 76 75 75 75 74 74 77 75 76 76 75 71 72 73 73 71 69 70 69 71 70 67 68 65 66 66 64 64 65 66 66 68 68 67 67 68 68 66 65 64 66 69 70 72 71 72 72 69 67 72 73 68 70 75 73 73 73 73 73 73 73 73 74 74 74 74 74 74 74 75 75 76 77 77 75 73 73
70 71 73 72 74 74 73 71 74 75 75 76 74 75 76 74 72 75 74 70 73 74 73 71 71 67 67 68 68 68 68 70 68 66 68 71 69 67 67 65 69 71 68 68 69 68 66 63 65 73 71 72 73 72 71 70 70 66 63 67 67 76 72 72 72 72 72 72 72 72 73 73 72 73 73 73 74 74 75 75 76 77 75 73 73
69 68 71 73 73 74 74 73 74 74 74 73 74 74 77 74 73 75 73 74 74 75 73 71 70 70 69 68 68 67 68 67 66 66 69 71 68 68 69 68 74 72 71 70 69 68 67 66 66 69 74 75 72 70 67 68 74 69 65 66 66 75 71 72 72 72 71 71 71 71 71 71 71 71 72 72 73 73 75 75 76 76 76 74 73
71 73 73 72 74 74 74 73 73 73 74 73 74 75 77 75 73 73 73 75 74 72 73 72 69 69 70 68 69 68 69 68 68 66 68 69 68 68 68 69 70 71 72 72 70 70 69 66 65 66 67 74 70 69 66 65 70 67 66 69 70 74 73 73 72 71 71 70 70 69 69 70 69 70 70 71 71 72 74 75 76 76 76 74 73
71 71 72 71 71 72 71 69 70 71 72 71 72 73 74 74 73 70 70 75 75 74 72 71 68 69 72 72 73 71 71 71 70 69 68 69 69 68 69 70 72 71 73 72 71 71 70 69 68 68 64 71 71 68 69 65 67 70 68 67 72 75 74 72 72 71 70 70 69 68 68 68 68 69 70 70 71 71 73 75 77 77 76 75 74
70 71 71 71 72 71 70 72 69 70 72 72 71 73 74 76 74 73 73 74 76 73 73 72 71 72 73 72 73 72 72 70 70 70 68 69 69 67 68 68 69 71 76 72 72 71 71 71 69 68 67 67 67 69 70 67 63 64 66 67 67 63 67 73 72 70 69 69 68 68 67 67 67 67 68 69 69 70 71 72 75 77 76 75 74
70 70 71 70 71 71 70 70 71 70 73 75 72 72 72 73 74 71 71 72 73 73 72 72 72 70 71 71 71 71 72 72 70 68 69 69 66 67 67 65 66 72 73 71 73 72 70 70 70 71 69 67 66 71 74 68 64 67 64 65 63 62 62 71 73 69 69 69 68 68 67 67 66 67 67 67 68 69 69 69 72 75 76 75 72
70 70 70 69 70 71 71 71 72 72 74 73 73 72 72 73 74 71 69 71 73 73 72 74 72 72 72 72 71 72 69 70 69 69 69 70 69 68 67 67 68 68 69 73 74 72 72 71 72 71 71 71 71 73 71 69 68 64 67 65 62 59 60 62 72 67 69 68 68 68 67 67 66 66 66 66 66 67 67 67 68 72 74 72 68
67 69 70 70 70 74 72 73 75 74 73 73 72 72 72 72 73 73 73 72 72 71 71 71 70 71 71 72 71 71 71 71 71 70 70 71 71 70 69 70 72 71 73 72 73 72 71 70 70 72 74 74 74 73 72 70 67 64 64 67 66 63 62 61 71 67 67 68 68 67 67 67 66 65 64 64 64 63 63 64 65 66 69 69 68
66 67 69 70 71 73 71 72 73 73 72 72 73 71 71 71 72 71 73 73 72 73 73 73 73 72 72 71 70 70 71 69 70 69 69 70 70 70 69 71 70 70 71 73 74 73 72 71 72 73 73 74 73 74 73 72 71 68 67 70 66 66 67 64 67 66 68 67 67 67 66 67 66 65 64 63 63 62 62 62 62 63 65 65 66
67 65 67 68 69 72 73 72 72 73 73 73 73 73 72 71 70 70 72 73 73 73 73 74 74 73 72 73 72 72 71 70 69 70 72 71 70 69 70 70 71 71 75 74 75 74 73 72 71 71 73 72 73 73 73 73 72 71 69 67 66 67 70 67 65 66 63 62 62 64 66 66 65 64 64 63 62 62 62 62 62 61 61 61 61
67 66 65 68 69 69 71 71 70 72 72 71 74 75 72 70 73 72 72 74 74 74 73 73 72 73 72 71 72 73 72 71 69 69 70 70 68 70 71 73 71 73 74 74 77 74 74 73 73 73 73 74 74 74 74 74 74 73 72 71 70 69 67 69 69 66 65 66 67 68 67 66 66 63 62 62 63 63 62 61 61 61 61 61 60
66 67 66 65 67 68 69 69 70 72 72 71 75 74 75 74 72 72 74 74 74 73 74 72 71 71 72 71 70 72 72 72 73 74 73 71 72 72 70 71 72 73 73 74 74 76 75 74 73 73 74 75 75 75 73 75 75 75 73 71 70 70 69 70 70 68 68 66 65 66 66 66 65 64 63 62 62 62 62 62 63 61 61 60 61
65 67 66 65 65 66 67 71 72 70 68 71 72 71 74 74 74 72 73 71 72 72 71 69 71 72 73 70 70 71 73 75 74 75 74 77 70 71 72 72 75 74 74 74 74 75 75 74 74 74 73 73 75 72 73 74 74 73 72 73 71 71 71 69 69 72 70 65 66 64 68 67 65 64 63 61 61 62 62 62 62 62 61 60 60
70 70 69 68 66 65 67 70 69 68 69 71 75 73 75 74 73 71 71 73 73 72 71 70 68 68 69 73 73 74 75 74 76 77 78 77 77 73 73 73 73 74 75 74 75 74 74 73 73 73 71 70 71 73 74 75 75 74 74 74 72 72 73 71 68 68 69 66 65 68 64 63 64 67 62 59 57 60 59 60 59 59 60 60 60
71 73 70 69 67 66 65 66 66 67 68 67 68 66 68 71 72 70 70 72 73 74 75 74 73 70 71 71 69 69 73 75 75 75 77 77 76 77 78 77 76 75 73 72 71 74 74 72 71 73 73 70 71 72 72 72 76 74 73 73 73 73 71 71 68 70 72 70 71 68 69 67 66 66 64 58 57 57 57 58 60 60 60 60 60
73 72 70 70 71 69 69 69 71 69 67 64 63 65 66 66 69 72 68 67 66 69 72 71 71 72 71 69 68 68 71 73 72 72 75 76 76 76 77 78 78 77 76 75 74 73 73 71 71 73 72 71 71 71 72 74 75 75 75 74 72 71 71 70 70 68 72 72 69 69 66 68 68 64 63 58 56 56 57 60 60 60 59 59 60
71 72 73 72 71 71 71 72 72 69 66 63 62 63 64 64 65 70 69 70 69 72 69 69 69 70 71 74 73 72 72 73 73 72 73 73 75 78 77 77 77 75 72 72 74 75 73 74 72 70 73 73 72 72 72 74 75 74 74 72 72 73 72 71 70 69 72 73 70 68 65 67 68 66 62 59 58 58 57 60 60 60 59 59 59
73 74 74 72 74 74 73 73 72 68 65 61 60 61 61 62 64 68 72 72 71 70 71 70 70 71 74 74 74 73 73 74 74 74 74 75 75 73 73 74 74 74 75 72 72 74 75 73 72 72 74 74 74 74 74 74 74 74 74 73 74 73 72 72 71 72 71 69 66 67 66 64 63 63 65 62 59 59 60 59 59 59 59 59 59
75 75 75 74 74 74 74 72 70 64 59 57 59 59 58 59 61 68 72 73 71 71 72 72 72 73 74 74 75 74 74 74 72 70 71 71 73 74 73 72 71 72 71 70 74 75 74 74 74 74 75 75 75 75 76 75 74 75 74 74 74 74 73 73 71 70 68 69 67 66 64 63 65 63 63 60 56 58 58 59 59 59 59 58 58
75 76 74 75 75 74 74 71 68 63 56 55 56 56 56 57 60 68 72 73 73 72 72 72 73 74 74 74 74 73 74 74 64 63 64 67 70 71 72 71 70 71 70 79 69 69 76 75 74 75 74 75 72 77 76 75 75 75 74 75 73 73 72 70 69 71 69 70 71 66 62 63 65 59 63 59 58 58 58 58 60 59 59 58 57
75 74 75 74 72 71 71 70 68 62 57 55 53 52 53 54 62 69 72 72 72 72 73 73 73 73 73 74 74 73 73 68 61 58 60 64 67 68 70 70 70 69 70 75 66 64 63 62 62 64 64 63 63 63 63 65 72 73 74 72 71 70 72 68 67 69 70 72 72 68 62 62 63 61 59 59 61 60 58 57 59 59 58 57 56
74 74 74 72 71 71 70 68 65 59 52 53 51 51 50 51 58 69 70 70 70 71 70 70 70 71 71 74 72 70 67 64 57 57 59 63 64 65 66 67 68 68 69 71 71 73 64 64 64 63 63 64 64 65 65 65 64 68 70 68 67 68 68 68 69 69 71 70 72 69 67 61 60 62 61 62 64 58 57 59 59 58 57 56 56
72 73 71 69 69 70 70 68 65 61 56 55 52 50 49 49 59 65 63 63 62 60 61 62 64 66 69 71 68 65 62 58 54 55 56 59 62 63 64 65 66 67 68 68 69 70 71 71 70 69 69 67 69 68 70 69 68 69 67 66 67 71 71 69 69 69 68 70 71 69 66 63 60 58 60 58 60 60 59 61 60 60 59 59 59